Track STARLINK 1047 now! 10-day predictions STARLINK 1047 is classified as:
1 44752U 19074AR 21067.52771419 -.00001039 00000-0 -50894-4 0 9990 2 44752 53.0572 129.0528 0001067 130.9349 229.1732 15.06390772 73079